Olathe, KS

2:39 AM CST on February 25, 2017 (GMT -0600)
Johnson County Executive

Weather History for KOJC - December, 2013

Change the Weather History Date:

Saturday, December 7, 2013

  Actual Average Record
Temperature  
Mean Temperature 12 °F 34 °F  
Max Temperature 20 °F 43 °F 70 °F (1966)
Min Temperature 4 °F 26 °F 0 °F (1950)
Degree Days  
Heating Degree Days 53 31  
Month to date heating degree days 242 206  
Since 1 July heating degree days 1302 1161  
Cooling Degree Days 0 0  
Month to date cooling degree days 0 0  
Year to date cooling degree days 1360 1349  
Moisture  
Dew Point 0 °F    
Average Humidity 63    
Maximum Humidity 83    
Minimum Humidity 43    
Precipitation  
Precipitation 0.00 in 0.05 in 1.20 in (1986)
Month to date precipitation T 0.38  
Year to date precipitation 36.19 38.78  
Sea Level Pressure  
Sea Level Pressure 30.62 in    
Wind  
Wind Speed 8 mph (NE)    
Max Wind Speed 17 mph    
Max Gust Speed 22 mph    
Visibility 10 miles    
Events      
T = Trace of Precipitation, MM = Missing Value Source: NWS Daily Summary

Daily Weather History Graph

Daily Weather History Graph

Search for Another Location

Airport or City:

Trip Planner

Search our weather history database for the weather conditions in past years. The results will help you decide how hot, cold, wet, or windy it might be!

Date:

Astronomy

Dec. 07, 2013 Rise Set
Actual Time 7:24 AM CST 4:56 PM CST
Civil Twilight 6:54 AM CST 5:26 PM CST
Nautical Twilight 6:21 AM CST 5:59 PM CST
Astronomical Twilight 5:48 AM CST 6:32 PM CST
Moon 11:11 AM CST (12/7) 10:37 PM CST (12/7)
Length of Visible Light 10h 32m
Length of Day
9h 32m
Waxing Crescent, 29% of the Moon is Illuminated
Dec 7
Waxing Crescent
Dec 9
First Quarter
Dec 17
Full
Dec 25
Last Quarter
Jan 1
New

Hourly Weather History & Observations

Time (CST) Temp. Windchill Dew Point Humidity Pressure Visibility Wind Dir Wind Speed Gust Speed Precip Events Conditions
12:53 AM 9.0 °F -5.1 °F -0.9 °F 64% 30.68 in 10.0 mi North 10.4 mph - N/A   Clear
1:53 AM 8.1 °F -5.3 °F -0.9 °F 67% 30.68 in 10.0 mi North 9.2 mph - N/A   Clear
2:53 AM 7.0 °F -5.7 °F -0.9 °F 70% 30.70 in 10.0 mi North 8.1 mph - N/A   Clear
3:53 AM 7.0 °F -5.7 °F -0.9 °F 70% 30.71 in 10.0 mi North 8.1 mph - N/A   Clear
4:53 AM 6.1 °F -6.8 °F -0.9 °F 73% 30.73 in 10.0 mi North 8.1 mph - N/A   Clear
5:53 AM 5.0 °F -5.6 °F -2.0 °F 73% 30.73 in 10.0 mi NNE 5.8 mph - N/A   Clear
6:53 AM 3.9 °F -5.3 °F -2.0 °F 76% 30.74 in 10.0 mi NNE 4.6 mph - N/A   Clear
7:53 AM 5.0 °F -6.9 °F -0.9 °F 76% 30.76 in 10.0 mi North 6.9 mph - N/A   Clear
8:53 AM 7.0 °F -6.6 °F -0.9 °F 70% 30.74 in 10.0 mi NNE 9.2 mph - N/A   Clear
9:53 AM 10.0 °F -4.5 °F -0.9 °F 61% 30.75 in 10.0 mi ENE 11.5 mph - N/A   Clear
10:53 AM 12.9 °F 3.8 °F -0.0 °F 56% 30.73 in 10.0 mi NNE 5.8 mph - N/A   Clear
11:53 AM 15.1 °F 3.3 °F -0.0 °F 51% 30.70 in 10.0 mi ENE 9.2 mph - N/A   Clear
12:53 PM 19.0 °F 8.2 °F 1.0 °F 46% 30.65 in 10.0 mi ENE 9.2 mph - N/A   Clear
1:53 PM 19.9 °F 9.3 °F -0.0 °F 42% 30.61 in 10.0 mi ENE 9.2 mph - N/A   Clear
2:53 PM 19.9 °F 9.3 °F -0.0 °F 42% 30.58 in 10.0 mi East 9.2 mph - N/A   Clear
3:53 PM 19.0 °F 9.0 °F -0.0 °F 43% 30.55 in 10.0 mi ENE 8.1 mph - N/A   Clear
4:53 PM 18.0 °F 9.8 °F 1.0 °F 48% 30.54 in 10.0 mi ENE 5.8 mph - N/A   Clear
5:53 PM 18.0 °F 6.9 °F 1.0 °F 48% 30.53 in 10.0 mi East 9.2 mph - N/A   Scattered Clouds
6:53 PM 18.0 °F 6.9 °F 1.0 °F 48% 30.53 in 10.0 mi East 9.2 mph - N/A   Clear
7:53 PM 18.0 °F 7.7 °F 1.9 °F 50% 30.51 in 10.0 mi East 8.1 mph - N/A   Scattered Clouds
8:53 PM 18.0 °F 7.7 °F 1.9 °F 50% 30.48 in 10.0 mi East 8.1 mph - N/A   Scattered Clouds
9:53 PM 19.0 °F 6.1 °F 1.9 °F 47% 30.44 in 10.0 mi East 12.7 mph - N/A   Overcast
10:53 PM 19.0 °F 9.0 °F 1.9 °F 47% 30.42 in 10.0 mi East 8.1 mph - N/A   Overcast
11:53 PM 19.0 °F 8.2 °F 3.0 °F 50% 30.40 in 10.0 mi East 9.2 mph - N/A   Overcast